Time,TemperatureF,DewpointF,PressureIn,WindDirection,WindDirectionDegrees,WindSpeedMPH,WindSpeedGustMPH,Humidity,HourlyPrecipIn,Conditions,Clouds,dailyrainin,SoftwareType,DateUTC
2013-07-07 00:01:00,72.0,69.0,-100.00,SSE,155,6.0,7.0,89,0.00,,,-99.99,,2013-07-07 05:01:00,
2013-07-07 00:11:00,73.0,69.0,-100.00,South,170,6.0,7.0,87,0.00,,,-99.99,,2013-07-07 05:11:00,
2013-07-07 00:21:00,73.0,69.0,-100.00,SSE,165,6.0,7.0,84,0.00,,,-99.99,,2013-07-07 05:21:00,
2013-07-07 00:31:00,73.0,68.0,-100.00,SSE,165,4.0,6.0,84,0.00,,,-99.99,,2013-07-07 05:31:00,
2013-07-07 00:41:00,73.0,68.0,-100.00,SSE,160,4.0,6.0,84,0.00,,,-99.99,,2013-07-07 05:41:00,
2013-07-07 01:01:00,71.0,68.0,-100.00,SSE,160,4.0,5.0,89,0.00,,,-99.99,,2013-07-07 06:01:00,
2013-07-07 01:11:00,70.0,68.0,-100.00,South,170,4.0,6.0,91,0.00,,,-99.99,,2013-07-07 06:11:00,
2013-07-07 01:21:00,70.0,68.0,-100.00,South,170,5.0,6.0,92,0.00,,,-99.99,,2013-07-07 06:21:00,
2013-07-07 01:32:00,71.0,69.0,-100.00,South,170,5.0,6.0,92,0.00,,,-99.99,,2013-07-07 06:32:00,
2013-07-07 01:43:00,72.0,69.0,-100.00,South,175,4.0,6.0,90,0.00,,,-99.99,,2013-07-07 06:43:00,
2013-07-07 02:02:00,72.0,68.0,-100.00,South,170,4.0,6.0,88,0.00,,,-99.99,,2013-07-07 07:02:00,
2013-07-07 02:11:00,71.0,68.0,-100.00,South,175,3.0,5.0,89,0.00,,,-99.99,,2013-07-07 07:11:00,
2013-07-07 02:22:00,71.0,68.0,-100.00,South,185,3.0,4.0,90,0.00,,,-99.99,,2013-07-07 07:22:00,
2013-07-07 02:33:00,71.0,68.0,-100.00,South,190,4.0,5.0,91,0.00,,,-99.99,,2013-07-07 07:33:00,
2013-07-07 02:44:00,71.0,68.0,-100.00,South,190,4.0,6.0,92,0.00,,,-99.99,,2013-07-07 07:44:00,
2013-07-07 03:02:00,71.0,68.0,-100.00,South,190,4.0,6.0,92,0.00,,,-99.99,,2013-07-07 08:02:00,
2013-07-07 03:12:00,70.0,68.0,-100.00,South,190,4.0,6.0,92,0.00,,,-99.99,,2013-07-07 08:12:00,
2013-07-07 03:22:00,70.0,68.0,-100.00,South,185,4.0,5.0,93,0.00,,,-99.99,,2013-07-07 08:22:00,
2013-07-07 03:34:00,69.0,68.0,-100.00,South,185,5.0,6.0,93,0.00,,,-99.99,,2013-07-07 08:34:00,
2013-07-07 03:44:00,69.0,68.0,-100.00,South,185,4.0,6.0,94,0.00,,,-99.99,,2013-07-07 08:44:00,
2013-07-07 04:02:00,69.0,68.0,-100.00,South,175,4.0,6.0,94,0.00,,,-99.99,,2013-07-07 09:02:00,
2013-07-07 04:12:00,69.0,68.0,-100.00,South,175,4.0,6.0,95,0.00,,,-99.99,,2013-07-07 09:12:00,
2013-07-07 04:22:00,69.0,68.0,-100.00,South,185,5.0,6.0,94,0.00,,,-99.99,,2013-07-07 09:22:00,
2013-07-07 04:34:00,69.0,68.0,-100.00,South,180,4.0,6.0,94,0.00,,,-99.99,,2013-07-07 09:34:00,
2013-07-07 04:43:00,69.0,68.0,-100.00,South,185,5.0,6.0,94,0.00,,,-99.99,,2013-07-07 09:43:00,
2013-07-07 05:03:00,69.0,67.0,-100.00,South,185,4.0,5.0,95,0.00,,,-99.99,,2013-07-07 10:03:00,
2013-07-07 05:12:00,68.0,67.0,-100.00,South,190,4.0,4.0,95,0.00,,,-99.99,,2013-07-07 10:12:00,
2013-07-07 05:22:00,68.0,66.0,-100.00,South,185,4.0,4.0,96,0.00,,,-99.99,,2013-07-07 10:22:00,
2013-07-07 05:32:00,67.0,66.0,-100.00,South,185,4.0,4.0,96,0.00,,,-99.99,,2013-07-07 10:32:00,
2013-07-07 05:43:00,67.0,66.0,-100.00,South,190,4.0,4.0,96,0.00,,,-99.99,,2013-07-07 10:43:00,
2013-07-07 06:02:00,69.0,68.0,-100.00,SSW,200,4.0,7.0,96,0.00,,,-99.99,,2013-07-07 11:02:00,
2013-07-07 06:11:00,69.0,67.0,-100.00,SSW,205,4.0,5.0,96,0.00,,,-99.99,,2013-07-07 11:11:00,
2013-07-07 06:23:00,69.0,67.0,-100.00,SSW,195,4.0,6.0,95,0.00,,,-99.99,,2013-07-07 11:23:00,
2013-07-07 06:34:00,69.0,67.0,-100.00,South,180,4.0,4.0,95,0.00,,,-99.99,,2013-07-07 11:34:00,
2013-07-07 06:43:00,69.0,67.0,-100.00,South,180,3.0,5.0,95,0.00,,,-99.99,,2013-07-07 11:43:00,
2013-07-07 06:53:00,69.0,68.0,-100.00,South,180,2.0,4.0,95,0.00,,,-99.99,,2013-07-07 11:53:00,
2013-07-07 07:02:00,69.0,68.0,-100.00,South,170,3.0,5.0,95,0.00,,,-99.99,,2013-07-07 12:02:00,
2013-07-07 07:12:00,70.0,68.0,-100.00,SSE,165,4.0,7.0,93,0.00,,,-99.99,,2013-07-07 12:12:00,
2013-07-07 07:22:00,71.0,68.0,-100.00,South,185,4.0,7.0,91,0.00,,,-99.99,,2013-07-07 12:22:00,
2013-07-07 07:34:00,71.0,68.0,-100.00,South,175,6.0,8.0,89,0.00,,,-99.99,,2013-07-07 12:34:00,
2013-07-07 07:43:00,72.0,68.0,-100.00,South,180,4.0,7.0,87,0.00,,,-99.99,,2013-07-07 12:43:00,
2013-07-07 07:52:00,73.0,68.0,-100.00,SSE,160,4.0,7.0,85,0.00,,,-99.99,,2013-07-07 12:52:00,
2013-07-07 08:22:00,76.0,68.0,-100.00,SSE,165,5.0,9.0,76,0.00,,,-99.99,,2013-07-07 13:22:00,
2013-07-07 08:34:00,76.0,68.0,-100.00,South,180,5.0,9.0,75,0.00,,,-99.99,,2013-07-07 13:34:00,
2013-07-07 08:43:00,77.0,67.0,-100.00,South,190,6.0,7.0,73,0.00,,,-99.99,,2013-07-07 13:43:00,
2013-07-07 08:52:00,77.0,67.0,-100.00,South,185,5.0,7.0,71,0.00,,,-99.99,,2013-07-07 13:52:00,
2013-07-07 09:02:00,77.0,67.0,-100.00,SSW,195,6.0,9.0,71,0.00,,,-99.99,,2013-07-07 14:02:00,
2013-07-07 09:12:00,78.0,67.0,-100.00,South,190,6.0,11.0,70,0.00,,,-99.99,,2013-07-07 14:12:00,
2013-07-07 09:22:00,78.0,67.0,-100.00,South,185,6.0,9.0,70,0.00,,,-99.99,,2013-07-07 14:22:00,
2013-07-07 09:34:00,79.0,68.0,-100.00,South,185,6.0,8.0,69,0.00,,,-99.99,,2013-07-07 14:34:00,
2013-07-07 09:43:00,78.0,67.0,-100.00,South,175,7.0,10.0,68,0.00,,,-99.99,,2013-07-07 14:43:00,
2013-07-07 10:02:00,78.0,67.0,-100.00,SSW,195,6.0,8.0,70,0.00,,,-99.99,,2013-07-07 15:02:00,
2013-07-07 10:11:00,80.0,68.0,-100.00,South,190,6.0,9.0,67,0.00,,,-99.99,,2013-07-07 15:11:00,
2013-07-07 10:22:00,81.0,68.0,-100.00,South,190,6.0,9.0,65,0.00,,,-99.99,,2013-07-07 15:22:00,
2013-07-07 10:34:00,81.0,68.0,-100.00,SSW,195,7.0,9.0,63,0.00,,,-99.99,,2013-07-07 15:34:00,
2013-07-07 10:43:00,82.0,67.0,-100.00,SSW,200,8.0,11.0,61,0.00,,,-99.99,,2013-07-07 15:43:00,
2013-07-07 11:01:00,83.0,68.0,-100.00,SSW,210,6.0,12.0,60,0.00,,,-99.99,,2013-07-07 16:01:00,
2013-07-07 11:11:00,84.0,69.0,-100.00,SSW,195,6.0,9.0,59,0.00,,,-99.99,,2013-07-07 16:11:00,
2013-07-07 11:23:00,85.0,68.0,-100.00,South,190,9.0,11.0,57,0.00,,,-99.99,,2013-07-07 16:23:00,
2013-07-07 11:34:00,85.0,67.0,-100.00,SSW,195,9.0,21.0,54,0.00,,,-99.99,,2013-07-07 16:34:00,
2013-07-07 11:43:00,86.0,68.0,-100.00,South,190,7.0,12.0,55,0.00,,,-99.99,,2013-07-07 16:43:00,
2013-07-07 11:53:00,86.0,67.0,-100.00,South,190,8.0,19.0,54,0.00,,,-99.99,,2013-07-07 16:53:00,
2013-07-07 12:02:00,86.0,66.0,-100.00,South,190,9.0,15.0,52,0.00,,,-99.99,,2013-07-07 17:02:00,
2013-07-07 12:12:00,86.0,66.0,-100.00,SSW,205,11.0,17.0,52,0.00,,,-99.99,,2013-07-07 17:12:00,
2013-07-07 12:22:00,86.0,66.0,-100.00,South,185,12.0,19.0,51,0.00,,,-99.99,,2013-07-07 17:22:00,
2013-07-07 12:34:00,86.0,67.0,-100.00,South,175,9.0,16.0,52,0.00,,,-99.99,,2013-07-07 17:34:00,
2013-07-07 12:43:00,86.0,67.0,-100.00,South,190,12.0,20.0,52,0.00,,,-99.99,,2013-07-07 17:43:00,
2013-07-07 13:02:00,87.0,68.0,-100.00,South,190,7.0,17.0,52,0.00,,,-99.99,,2013-07-07 18:02:00,
2013-07-07 13:11:00,87.0,68.0,-100.00,South,185,9.0,15.0,52,0.00,,,-99.99,,2013-07-07 18:11:00,
2013-07-07 13:22:00,89.0,69.0,-100.00,SSW,195,6.0,16.0,52,0.00,,,-99.99,,2013-07-07 18:22:00,
2013-07-07 13:33:00,89.0,69.0,-100.00,South,180,6.0,12.0,51,0.00,,,-99.99,,2013-07-07 18:33:00,
2013-07-07 13:43:00,89.0,67.0,-100.00,South,190,12.0,18.0,48,0.00,,,-99.99,,2013-07-07 18:43:00,
2013-07-07 14:01:00,90.0,67.0,-100.00,South,185,11.0,16.0,47,0.00,,,-99.99,,2013-07-07 19:01:00,
2013-07-07 14:11:00,90.0,67.0,-100.00,South,185,9.0,20.0,46,0.00,,,-99.99,,2013-07-07 19:11:00,
2013-07-07 14:22:00,90.0,66.0,-100.00,South,185,9.0,17.0,45,0.00,,,-99.99,,2013-07-07 19:22:00,
2013-07-07 14:34:00,90.0,67.0,-100.00,SSE,165,9.0,18.0,45,0.00,,,-99.99,,2013-07-07 19:34:00,
2013-07-07 14:43:00,90.0,67.0,-100.00,South,180,10.0,19.0,45,0.00,,,-99.99,,2013-07-07 19:43:00,
2013-07-07 15:02:00,91.0,67.0,-100.00,SSW,195,9.0,14.0,44,0.00,,,-99.99,,2013-07-07 20:02:00,
2013-07-07 15:11:00,91.0,66.0,-100.00,South,185,11.0,16.0,43,0.00,,,-99.99,,2013-07-07 20:11:00,
2013-07-07 15:22:00,91.0,66.0,-100.00,South,185,10.0,19.0,43,0.00,,,-99.99,,2013-07-07 20:22:00,
2013-07-07 15:34:00,92.0,67.0,-100.00,South,185,9.0,14.0,43,0.00,,,-99.99,,2013-07-07 20:34:00,
2013-07-07 15:42:00,91.0,66.0,-100.00,South,185,9.0,17.0,43,0.00,,,-99.99,,2013-07-07 20:42:00,
2013-07-07 16:02:00,92.0,65.0,-100.00,South,185,9.0,21.0,42,0.00,,,-99.99,,2013-07-07 21:02:00,
2013-07-07 16:11:00,92.0,65.0,-100.00,South,190,14.0,23.0,42,0.00,,,-99.99,,2013-07-07 21:11:00,
2013-07-07 16:22:00,92.0,65.0,-100.00,South,180,10.0,22.0,41,0.00,,,-99.99,,2013-07-07 21:22:00,
2013-07-07 16:33:00,92.0,66.0,-100.00,SSW,195,9.0,17.0,42,0.00,,,-99.99,,2013-07-07 21:33:00,
2013-07-07 16:43:00,92.0,65.0,-100.00,South,185,12.0,22.0,42,0.00,,,-99.99,,2013-07-07 21:43:00,
2013-07-07 16:53:00,92.0,66.0,-100.00,South,190,9.0,22.0,43,0.00,,,-99.99,,2013-07-07 21:53:00,
2013-07-07 17:01:00,91.0,66.0,-100.00,SSW,200,12.0,20.0,43,0.00,,,-99.99,,2013-07-07 22:01:00,
2013-07-07 17:11:00,91.0,66.0,-100.00,SSW,200,9.0,19.0,43,0.00,,,-99.99,,2013-07-07 22:11:00,
2013-07-07 17:22:00,91.0,67.0,-100.00,SSW,195,9.0,16.0,45,0.00,,,-99.99,,2013-07-07 22:22:00,
2013-07-07 17:34:00,90.0,66.0,-100.00,South,190,9.0,17.0,45,0.00,,,-99.99,,2013-07-07 22:34:00,
2013-07-07 17:43:00,89.0,67.0,-100.00,South,180,9.0,13.0,47,0.00,,,-99.99,,2013-07-07 22:43:00,
2013-07-07 18:02:00,88.0,67.0,-100.00,South,190,7.0,11.0,50,0.00,,,-99.99,,2013-07-07 23:02:00,
2013-07-07 18:12:00,87.0,68.0,-100.00,SSW,195,7.0,11.0,53,0.00,,,-99.99,,2013-07-07 23:12:00,
2013-07-07 18:22:00,87.0,69.0,-100.00,South,185,7.0,10.0,54,0.00,,,-99.99,,2013-07-07 23:22:00,
2013-07-07 18:33:00,86.0,69.0,-100.00,South,190,7.0,12.0,56,0.00,,,-99.99,,2013-07-07 23:33:00,
2013-07-07 18:43:00,86.0,69.0,-100.00,South,190,8.0,11.0,56,0.00,,,-99.99,,2013-07-07 23:43:00,
2013-07-07 18:53:00,87.0,70.0,-100.00,SSW,195,7.0,10.0,57,0.00,,,-99.99,,2013-07-07 23:53:00,
2013-07-07 19:01:00,87.0,70.0,-100.00,South,185,7.0,9.0,57,0.00,,,-99.99,,2013-07-08 00:01:00,
2013-07-07 19:22:00,87.0,71.0,-100.00,South,190,6.0,9.0,59,0.00,,,-99.99,,2013-07-08 00:22:00,
2013-07-07 19:33:00,86.0,71.0,-100.00,South,175,6.0,7.0,61,0.00,,,-99.99,,2013-07-08 00:33:00,
2013-07-07 19:43:00,85.0,71.0,-100.00,South,180,6.0,9.0,62,0.00,,,-99.99,,2013-07-08 00:43:00,
2013-07-07 19:53:00,85.0,71.0,-100.00,South,180,6.0,9.0,63,0.00,,,-99.99,,2013-07-08 00:53:00,
2013-07-07 20:01:00,85.0,71.0,-100.00,South,175,6.0,7.0,64,0.00,,,-99.99,,2013-07-08 01:01:00,
2013-07-07 20:11:00,84.0,72.0,-100.00,South,175,7.0,9.0,65,0.00,,,-99.99,,2013-07-08 01:11:00,
2013-07-07 20:22:00,84.0,71.0,-100.00,South,175,6.0,9.0,65,0.00,,,-99.99,,2013-07-08 01:22:00,
2013-07-07 20:32:00,84.0,71.0,-100.00,South,185,7.0,10.0,65,0.00,,,-99.99,,2013-07-08 01:32:00,
2013-07-07 20:43:00,84.0,71.0,-100.00,South,185,6.0,10.0,65,0.00,,,-99.99,,2013-07-08 01:43:00,
2013-07-07 20:52:00,83.0,71.0,-100.00,South,185,7.0,11.0,65,0.00,,,-99.99,,2013-07-08 01:52:00,
2013-07-07 21:02:00,83.0,71.0,-100.00,South,180,6.0,9.0,66,0.00,,,-99.99,,2013-07-08 02:02:00,
2013-07-07 21:11:00,82.0,70.0,-100.00,South,185,7.0,12.0,66,0.00,,,-99.99,,2013-07-08 02:11:00,
2013-07-07 21:22:00,82.0,70.0,-100.00,South,190,7.0,9.0,67,0.00,,,-99.99,,2013-07-08 02:22:00,
2013-07-07 21:33:00,82.0,70.0,-100.00,South,185,6.0,9.0,67,0.00,,,-99.99,,2013-07-08 02:33:00,
2013-07-07 21:42:00,81.0,70.0,-100.00,South,185,6.0,7.0,68,0.00,,,-99.99,,2013-07-08 02:42:00,
2013-07-07 22:01:00,81.0,70.0,-100.00,South,190,6.0,9.0,68,0.00,,,-99.99,,2013-07-08 03:01:00,
2013-07-07 22:12:00,81.0,70.0,-100.00,South,190,6.0,11.0,68,0.00,,,-99.99,,2013-07-08 03:12:00,
2013-07-07 22:23:00,81.0,70.0,-100.00,South,185,6.0,9.0,68,0.00,,,-99.99,,2013-07-08 03:23:00,
2013-07-07 22:34:00,81.0,70.0,-100.00,South,180,6.0,8.0,68,0.00,,,-99.99,,2013-07-08 03:34:00,
2013-07-07 22:42:00,81.0,70.0,-100.00,South,190,7.0,11.0,68,0.00,,,-99.99,,2013-07-08 03:42:00,
2013-07-07 23:02:00,80.0,70.0,-100.00,South,180,6.0,9.0,69,0.00,,,-99.99,,2013-07-08 04:02:00,
2013-07-07 23:12:00,80.0,70.0,-100.00,South,180,6.0,9.0,70,0.00,,,-99.99,,2013-07-08 04:12:00,
2013-07-07 23:22:00,80.0,70.0,-100.00,South,185,6.0,7.0,71,0.00,,,-99.99,,2013-07-08 04:22:00,
2013-07-07 23:33:00,80.0,70.0,-100.00,South,180,6.0,8.0,72,0.00,,,-99.99,,2013-07-08 04:33:00,
2013-07-07 23:42:00,79.0,70.0,-100.00,South,185,6.0,9.0,72,0.00,,,-99.99,,2013-07-08 04:42:00,
2013-07-07 23:53:00,80.0,70.0,-100.00,SSW,195,6.0,9.0,72,0.00,,,-99.99,,2013-07-08 04:53:00,